CXA6465 ZBAA-ZBTJ

Flight info

Callsign CXA6465
Flight time 0h 42m
Altitude 22600
Route OMDEK
Aircraft A321/M-SDFGIRWY/LB2

Departure

Time 2026-04-14 04:44
Airport Beijing Capital International Airport (ZBAA)

Arrival

Time 2026-04-14 05:26
Airport Tianjin Binhai International Airport (ZBTJ)
Time Latitude Longitude Altitude Speed Heading
2026-04-14 04:16 40.07828 116.60276 119 ft 0 kts 202°
2026-04-14 04:29 40.07830 116.60278 119 ft 2 kts 202°
2026-04-14 04:30 40.07844 116.60285 119 ft 2 kts 202°
2026-04-14 04:30 40.07858 116.60292 119 ft 2 kts 201°
2026-04-14 04:30 40.07872 116.60299 119 ft 2 kts 202°
2026-04-14 04:30 40.07886 116.60307 119 ft 2 kts 214°
2026-04-14 04:31 40.07897 116.60319 119 ft 2 kts 231°
2026-04-14 04:31 40.07905 116.60336 119 ft 2 kts 249°
2026-04-14 04:31 40.07908 116.60375 119 ft 2 kts 282°
2026-04-14 04:32 40.07906 116.60386 119 ft 1 kts 292°
2026-04-14 04:32 40.07903 116.60393 119 ft 0 kts 294°
2026-04-14 04:35 40.07906 116.60386 119 ft 2 kts 294°
2026-04-14 04:35 40.07917 116.60352 119 ft 6 kts 293°
2026-04-14 04:35 40.07953 116.60240 119 ft 16 kts 294°
2026-04-14 04:36 40.07996 116.60108 119 ft 15 kts 287°
2026-04-14 04:36 40.07991 116.59969 119 ft 15 kts 263°
2026-04-14 04:36 40.07932 116.59880 119 ft 14 kts 180°
2026-04-14 04:36 40.07830 116.59895 119 ft 14 kts 173°
2026-04-14 04:37 40.07727 116.59911 119 ft 14 kts 173°
2026-04-14 04:37 40.07624 116.59927 119 ft 14 kts 173°
2026-04-14 04:37 40.07520 116.59943 119 ft 15 kts 173°
2026-04-14 04:37 40.07416 116.59960 119 ft 15 kts 173°
2026-04-14 04:38 40.07312 116.59976 119 ft 15 kts 173°
2026-04-14 04:38 40.07206 116.59993 119 ft 15 kts 174°
2026-04-14 04:38 40.07101 116.60009 119 ft 15 kts 173°
2026-04-14 04:38 40.06997 116.60026 119 ft 15 kts 173°
2026-04-14 04:39 40.06891 116.60044 119 ft 15 kts 175°
2026-04-14 04:39 40.06786 116.60059 119 ft 15 kts 173°
2026-04-14 04:39 40.06681 116.60076 119 ft 15 kts 172°
2026-04-14 04:39 40.06577 116.60093 119 ft 15 kts 174°
2026-04-14 04:40 40.06467 116.60110 119 ft 18 kts 174°
2026-04-14 04:40 40.06332 116.60129 119 ft 19 kts 173°
2026-04-14 04:40 40.06200 116.60152 119 ft 18 kts 173°
2026-04-14 04:41 40.05949 116.60191 119 ft 17 kts 172°
2026-04-14 04:41 40.05827 116.60210 119 ft 17 kts 173°
2026-04-14 04:41 40.05711 116.60229 119 ft 11 kts 173°
2026-04-14 04:41 40.05638 116.60208 119 ft 11 kts 231°
2026-04-14 04:42 40.05620 116.60108 119 ft 11 kts 264°
2026-04-14 04:42 40.05634 116.60016 119 ft 10 kts 324°
2026-04-14 04:42 40.05681 116.59995 119 ft 0 kts 352°
2026-04-14 04:42 40.05700 116.59991 119 ft 18 kts 352°
2026-04-14 04:43 40.06079 116.59934 119 ft 88 kts 354°
2026-04-14 04:43 40.06898 116.59808 119 ft 145 kts 354°
2026-04-14 04:43 40.08048 116.59646 222 ft 181 kts 356°
2026-04-14 04:43 40.09345 116.59489 569 ft 196 kts 356°
2026-04-14 04:44 40.10766 116.59320 1053 ft 211 kts 356°
2026-04-14 04:44 40.12269 116.59145 1605 ft 224 kts 356°
2026-04-14 04:44 40.13830 116.58880 2298 ft 230 kts 353°
2026-04-14 04:44 40.15453 116.58560 2691 ft 243 kts 352°
2026-04-14 04:45 40.17165 116.58244 3001 ft 259 kts 353°
2026-04-14 04:45 40.18999 116.57931 3460 ft 269 kts 353°
2026-04-14 04:45 40.20866 116.57629 4088 ft 272 kts 353°
2026-04-14 04:45 40.22742 116.57331 4722 ft 274 kts 352°
2026-04-14 04:46 40.24610 116.56882 5358 ft 275 kts 339°
2026-04-14 04:46 40.26266 116.55671 6015 ft 273 kts 319°
2026-04-14 04:46 40.27683 116.54045 6693 ft 273 kts 315°
2026-04-14 04:46 40.29074 116.52377 7362 ft 274 kts 315°
2026-04-14 04:47 40.30473 116.50691 8059 ft 274 kts 311°
2026-04-14 04:47 40.31490 116.48645 8697 ft 269 kts 286°
2026-04-14 04:47 40.31717 116.46240 9367 ft 268 kts 269°
2026-04-14 04:47 40.31689 116.43819 10039 ft 268 kts 269°
2026-04-14 04:48 40.31675 116.41376 10507 ft 277 kts 270°
2026-04-14 04:48 40.31668 116.38775 10767 ft 291 kts 270°
2026-04-14 04:48 40.31664 116.36080 11032 ft 306 kts 270°
2026-04-14 04:48 40.31663 116.33210 11286 ft 319 kts 269°
2026-04-14 04:49 40.31661 116.30265 11521 ft 333 kts 269°
2026-04-14 04:49 40.31658 116.27169 11743 ft 346 kts 269°
2026-04-14 04:49 40.31656 116.23971 11976 ft 358 kts 270°
2026-04-14 04:49 40.31652 116.20704 12193 ft 369 kts 270°
2026-04-14 04:50 40.31648 116.17271 12513 ft 377 kts 270°
2026-04-14 04:50 40.31642 116.13848 13012 ft 378 kts 270°
2026-04-14 04:50 40.31634 116.10444 13521 ft 380 kts 270°
2026-04-14 04:50 40.31625 116.06943 14013 ft 382 kts 270°
2026-04-14 04:51 40.31616 116.03484 14492 ft 383 kts 269°
2026-04-14 04:51 40.31266 116.00050 14900 ft 387 kts 255°
2026-04-14 04:51 40.30096 115.96858 15351 ft 392 kts 239°
2026-04-14 04:51 40.28253 115.94249 15801 ft 399 kts 223°
2026-04-14 04:52 40.25841 115.92334 16255 ft 405 kts 212°
2026-04-14 04:52 40.23367 115.90656 16682 ft 406 kts 212°
2026-04-14 04:52 40.20832 115.88939 17052 ft 408 kts 212°
2026-04-14 04:52 40.18344 115.87253 17455 ft 409 kts 212°
2026-04-14 04:53 40.15805 115.85532 17818 ft 411 kts 212°
2026-04-14 04:53 40.13256 115.83805 18158 ft 412 kts 212°
2026-04-14 04:53 40.10735 115.82099 18513 ft 413 kts 212°
2026-04-14 04:53 40.08159 115.80357 18916 ft 414 kts 212°
2026-04-14 04:54 40.05614 115.78637 19233 ft 414 kts 212°
2026-04-14 04:54 40.03054 115.76909 19565 ft 415 kts 213°
2026-04-14 04:54 40.00489 115.75179 19888 ft 416 kts 213°
2026-04-14 04:54 39.97934 115.73453 20206 ft 417 kts 212°
2026-04-14 04:55 39.95358 115.71719 20525 ft 419 kts 212°
2026-04-14 04:55 39.92757 115.69970 20797 ft 420 kts 213°
2026-04-14 04:55 39.90152 115.68220 21085 ft 421 kts 212°
2026-04-14 04:55 39.87533 115.66518 21334 ft 425 kts 209°
2026-04-14 04:56 39.84669 115.65479 21559 ft 439 kts 195°
2026-04-14 04:56 39.81576 115.65376 21827 ft 451 kts 181°
2026-04-14 04:56 39.78443 115.66253 22098 ft 462 kts 170°
2026-04-14 04:56 39.75375 115.67467 22366 ft 463 kts 169°
2026-04-14 04:57 39.72306 115.68714 22515 ft 465 kts 169°
2026-04-14 04:57 39.69209 115.69974 22514 ft 465 kts 169°
2026-04-14 04:57 39.66116 115.71225 22514 ft 466 kts 169°
2026-04-14 04:57 39.63036 115.72462 22516 ft 466 kts 169°
2026-04-14 04:58 39.59948 115.73699 22514 ft 466 kts 169°
2026-04-14 04:58 39.56837 115.74942 22504 ft 466 kts 169°
2026-04-14 04:58 39.53740 115.76174 22505 ft 466 kts 169°
2026-04-14 04:58 39.50647 115.77404 22501 ft 466 kts 169°
2026-04-14 04:59 39.47540 115.78639 22501 ft 467 kts 169°
2026-04-14 04:59 39.44476 115.79855 22501 ft 467 kts 169°
2026-04-14 04:59 39.41335 115.81100 22503 ft 467 kts 169°
2026-04-14 04:59 39.38242 115.82327 22505 ft 467 kts 169°
2026-04-14 05:00 39.35138 115.83556 22499 ft 467 kts 169°
2026-04-14 05:00 39.32069 115.84769 22504 ft 468 kts 169°
2026-04-14 05:00 39.28937 115.86006 22501 ft 468 kts 169°
2026-04-14 05:00 39.25821 115.87237 22500 ft 468 kts 168°
2026-04-14 05:01 39.22724 115.88460 22501 ft 468 kts 168°
2026-04-14 05:01 39.19631 115.89679 22505 ft 467 kts 168°
2026-04-14 05:01 39.16496 115.90905 22505 ft 467 kts 169°
2026-04-14 05:01 39.13358 115.92052 22507 ft 467 kts 170°
2026-04-14 05:02 39.10242 115.93158 22503 ft 467 kts 170°
2026-04-14 05:02 39.07133 115.94257 22502 ft 467 kts 170°
2026-04-14 05:02 39.03983 115.95373 22499 ft 467 kts 170°
2026-04-14 05:02 39.00873 115.96479 22504 ft 467 kts 170°
2026-04-14 05:03 38.97701 115.97611 22501 ft 467 kts 169°
2026-04-14 05:03 38.94582 115.98724 22495 ft 467 kts 169°
2026-04-14 05:03 38.91462 115.99837 22497 ft 467 kts 169°
2026-04-14 05:03 38.88330 116.00956 22503 ft 467 kts 169°
2026-04-14 05:04 38.85213 116.02068 22515 ft 467 kts 169°
2026-04-14 05:04 38.82101 116.03178 22517 ft 467 kts 169°
2026-04-14 05:04 38.78945 116.04302 22516 ft 467 kts 169°
2026-04-14 05:04 38.75841 116.05406 22518 ft 467 kts 169°
2026-04-14 05:05 38.72687 116.06552 22517 ft 470 kts 167°
2026-04-14 05:05 38.69758 116.08397 22499 ft 483 kts 149°
2026-04-14 05:05 38.67312 116.11422 22507 ft 494 kts 131°
2026-04-14 05:05 38.65681 116.15285 22505 ft 502 kts 112°
2026-04-14 05:06 38.65026 116.19675 22517 ft 506 kts 94°
2026-04-14 05:06 38.64955 116.24178 22522 ft 506 kts 91°
2026-04-14 05:06 38.64933 116.28655 22518 ft 506 kts 91°
2026-04-14 05:06 38.64907 116.33118 22508 ft 506 kts 90°
2026-04-14 05:07 38.65143 116.37582 22514 ft 506 kts 83°
2026-04-14 05:07 38.65745 116.42000 22375 ft 506 kts 76°
2026-04-14 05:07 38.66671 116.46318 22098 ft 503 kts 72°
2026-04-14 05:07 38.67709 116.50613 21738 ft 499 kts 71°
2026-04-14 05:08 38.68738 116.54785 21304 ft 496 kts 71°
2026-04-14 05:08 38.69754 116.58981 20794 ft 491 kts 72°
2026-04-14 05:08 38.70744 116.63156 20234 ft 487 kts 72°
2026-04-14 05:08 38.71690 116.67236 19678 ft 482 kts 73°
2026-04-14 05:09 38.72628 116.71317 19121 ft 477 kts 72°
2026-04-14 05:09 38.73560 116.75376 18556 ft 472 kts 72°
2026-04-14 05:09 38.74470 116.79346 17996 ft 468 kts 72°
2026-04-14 05:09 38.75386 116.83345 17442 ft 463 kts 72°
2026-04-14 05:10 38.76287 116.87272 16911 ft 458 kts 72°
2026-04-14 05:10 38.77174 116.91148 16342 ft 453 kts 72°
2026-04-14 05:10 38.78041 116.94947 15787 ft 449 kts 72°
2026-04-14 05:10 38.78783 116.98798 15192 ft 446 kts 81°
2026-04-14 05:11 38.78762 117.02760 14603 ft 442 kts 98°
2026-04-14 05:11 38.77938 117.06498 14078 ft 435 kts 112°
2026-04-14 05:11 38.76777 117.10028 13527 ft 431 kts 114°
2026-04-14 05:11 38.75595 117.13506 12928 ft 426 kts 114°
2026-04-14 05:12 38.74437 117.16966 12367 ft 422 kts 113°
2026-04-14 05:12 38.73565 117.20490 11900 ft 414 kts 97°
2026-04-14 05:12 38.73734 117.24100 11560 ft 400 kts 73°
2026-04-14 05:12 38.74818 117.27264 11377 ft 384 kts 60°
2026-04-14 05:13 38.76049 117.30235 11130 ft 372 kts 60°
2026-04-14 05:13 38.77232 117.33147 10891 ft 362 kts 60°
2026-04-14 05:13 38.78357 117.36008 10744 ft 362 kts 61°
2026-04-14 05:13 38.79689 117.38734 10524 ft 359 kts 44°
2026-04-14 05:14 38.81690 117.40481 10294 ft 350 kts 17°
2026-04-14 05:14 38.84043 117.40888 10124 ft 341 kts 350°
2026-04-14 05:14 38.86233 117.39895 9987 ft 333 kts 325°
2026-04-14 05:14 38.88097 117.38124 9793 ft 333 kts 322°
2026-04-14 05:15 38.90021 117.36504 9380 ft 331 kts 326°
2026-04-14 05:15 38.92021 117.35049 8962 ft 331 kts 329°
2026-04-14 05:15 38.94073 117.33687 8588 ft 328 kts 330°
2026-04-14 05:15 38.96097 117.32401 8208 ft 324 kts 330°
2026-04-14 05:16 38.98101 117.31146 7836 ft 319 kts 331°
2026-04-14 05:16 39.00094 117.29900 7448 ft 314 kts 330°
2026-04-14 05:16 39.02014 117.28683 7089 ft 309 kts 330°
2026-04-14 05:16 39.03923 117.27467 6736 ft 304 kts 330°
2026-04-14 05:17 39.05802 117.26269 6397 ft 299 kts 330°
2026-04-14 05:17 39.07666 117.25079 6063 ft 295 kts 330°
2026-04-14 05:17 39.09469 117.23929 5742 ft 290 kts 330°
2026-04-14 05:17 39.11255 117.22789 5310 ft 280 kts 330°
2026-04-14 05:18 39.12968 117.21693 4761 ft 274 kts 330°
2026-04-14 05:18 39.14650 117.20615 4268 ft 267 kts 331°
2026-04-14 05:18 39.16282 117.19569 3853 ft 257 kts 331°
2026-04-14 05:18 39.17854 117.18563 3504 ft 248 kts 331°
2026-04-14 05:19 39.19368 117.17593 3330 ft 238 kts 331°
2026-04-14 05:19 39.20821 117.16668 3280 ft 224 kts 333°
2026-04-14 05:19 39.22279 117.16255 3191 ft 217 kts
2026-04-14 05:19 39.23613 117.17107 3145 ft 212 kts 44°
2026-04-14 05:20 39.24360 117.18645 3048 ft 194 kts 67°
2026-04-14 05:20 39.24888 117.20152 2925 ft 177 kts 68°
2026-04-14 05:20 39.25375 117.21535 2783 ft 159 kts 67°
2026-04-14 05:20 39.25832 117.22798 2695 ft 156 kts 66°
2026-04-14 05:21 39.26299 117.24068 2480 ft 155 kts 66°
2026-04-14 05:21 39.26765 117.25314 2292 ft 153 kts 66°
2026-04-14 05:21 39.27218 117.26543 2111 ft 152 kts 71°
2026-04-14 05:21 39.27209 117.27830 1938 ft 144 kts 122°
2026-04-14 05:22 39.26461 117.28649 1965 ft 144 kts 155°
2026-04-14 05:22 39.25547 117.29208 1953 ft 144 kts 154°
2026-04-14 05:22 39.24656 117.29798 1938 ft 144 kts 153°
2026-04-14 05:22 39.23760 117.30400 1926 ft 144 kts 153°
2026-04-14 05:23 39.22850 117.30961 1873 ft 144 kts 158°
2026-04-14 05:23 39.21927 117.31453 1714 ft 144 kts 155°
2026-04-14 05:23 39.21038 117.32027 1509 ft 143 kts 152°
2026-04-14 05:23 39.20133 117.32604 1316 ft 145 kts 155°
2026-04-14 05:24 39.19213 117.33132 1137 ft 144 kts 156°
2026-04-14 05:24 39.18312 117.33655 919 ft 144 kts 153°
2026-04-14 05:24 39.17414 117.34264 745 ft 144 kts 152°
2026-04-14 05:24 39.16507 117.34802 547 ft 145 kts 155°
2026-04-14 05:25 39.15606 117.35365 330 ft 144 kts 153°
2026-04-14 05:25 39.14694 117.35921 155 ft 144 kts 154°
2026-04-14 05:25 39.13793 117.36479 21 ft 141 kts 154°
2026-04-14 05:25 39.13182 117.36844 18 ft 54 kts 153°
2026-04-14 05:26 39.13003 117.36857 18 ft 24 kts 224°